FW5910 Weather Reports


time (UTC)temp
C
wind
direction
speed
KPH
gust
KPH
rain 1hr
cm
rain 24hr
cm
rain mn
cm
humidity
%
barometer
mb
20260506234730 21 234 1.6 4.8 0.00 0.00 0.00 39 1009.6
20260506234229 21 159 1.6 4.8 0.00 0.00 0.00 40 1009.6
20260506233729 21 234 1.6 4.8 0.00 0.00 0.00 38 1009.7
20260506232729 21 286 3.2 9.7 0.00 0.00 0.00 40 1009.7
20260506232231 21 223 1.6 9.7 0.00 0.00 0.00 37 1009.6
20260506231226 21 241 1.6 8.0 0.00 0.00 0.00 38 1009.7
20260506230726 21 229 3.2 8.0 0.00 0.00 0.00 38 1009.7
20260506230226 21 275 3.2 8.0 0.00 0.00 0.00 38 1009.7
20260506225725 21 269 3.2 8.0 0.00 0.00 0.00 38 1009.8
20260506225226 21 229 1.6 8.0 0.00 0.00 0.00 39 1009.8
20260506224726 21 184 1.6 4.8 0.00 0.00 0.00 38 1010.0
20260506223724 21 153 1.6 6.4 0.00 0.00 0.00 39 1010.1
20260506223224 20 244 3.2 9.7 0.00 0.00 0.00 39 1010.2
20260506222722 21 223 3.2 9.7 0.00 0.00 0.00 38 1010.3
20260506222221 21 254 3.2 9.7 0.00 0.00 0.00 36 1010.5
20260506221718 21 239 3.2 9.7 0.00 0.00 0.00 37 1010.5
20260506221219 21 274 3.2 9.7 0.00 0.00 0.00 37 1010.5
20260506220214 21 115 3.2 6.4 0.00 0.00 0.00 35 1010.7
20260506215712 21 229 3.2 9.7 0.00 0.00 0.00 36 1010.8
20260506214712 21 228 3.2 8.0 0.00 0.00 0.00 36 1011.0
20260506214211 21 192 3.2 11.3 0.00 0.00 0.00 33 1011.2
20260506213212 20 270 3.2 11.3 0.00 0.00 0.00 35 1011.5
20260506212713 20 209 4.8 12.9 0.00 0.00 0.00 35 1011.6
20260506212213 20 242 4.8 14.5 0.00 0.00 0.00 34 1011.7
20260506211708 21 175 3.2 14.5 0.00 0.00 0.00 34 1011.8
20260506205709 20 193 3.2 11.3 0.00 0.00 0.00 33 1012.0
20260506205209 20 244 3.2 12.9 0.00 0.00 0.00 36 1012.0
20260506204708 20 209 4.8 17.7 0.00 0.00 0.00 35 1012.2
20260506204208 19 236 4.8 17.7 0.00 0.00 0.00 35 1012.4
20260506203708 20 200 3.2 11.3 0.00 0.00 0.00 33 1012.4
20260506203204 20 202 3.2 11.3 0.00 0.00 0.00 35 1012.5
20260506202703 20 156 3.2 12.9 0.00 0.00 0.00 35 1012.6
20260506202205 20 220 3.2 12.9 0.00 0.00 0.00 35 1012.6
20260506201704 20 161 3.2 12.9 0.00 0.00 0.00 35 1012.6
20260506200704 19 325 3.2 9.7 0.00 0.00 0.00 34 1012.8
20260506200205 20 286 3.2 9.7 0.00 0.00 0.00 35 1012.8
20260506195705 20 202 3.2 9.7 0.00 0.00 0.00 34 1012.9
20260506195205 20 200 1.6 9.7 0.00 0.00 0.00 33 1013.0
20260506194704 19 171 1.6 6.4 0.00 0.00 0.00 34 1013.1
20260506194204 18 282 3.2 6.4 0.00 0.00 0.00 34 1013.1
20260506192705 19 67 1.6 8.0 0.00 0.00 0.00 32 1013.4
20260506190703 17 238 3.2 11.3 0.00 0.00 0.00 36 1013.7
20260506190201 18 223 3.2 11.3 0.00 0.00 0.00 36 1013.8
20260506185702 17 232 3.2 11.3 0.00 0.00 0.00 37 1013.8
20260506185202 17 225 3.2 11.3 0.00 0.00 0.00 36 1013.9
20260506184702 17 215 3.2 8.0 0.00 0.00 0.00 35 1014.2
20260506184201 17 161 1.6 8.0 0.00 0.00 0.00 36 1014.2
20260506183202 17 239 3.2 11.3 0.00 0.00 0.00 36 1014.5
20260506182704 17 154 1.6 9.7 0.00 0.00 0.00 37 1014.5
20260506182205 16 326 1.6 6.4 0.00 0.00 0.00 38 1014.6
20260506181703 16 196 1.6 6.4 0.00 0.00 0.00 40 1014.8
20260506181203 16 106 1.6 6.4 0.00 0.00 0.00 36 1014.9
20260506180703 16 263 3.2 6.4 0.00 0.00 0.00 38 1014.9
20260506180204 16 336 1.6 8.0 0.00 0.00 0.00 39 1014.8
20260506175703 15 284 3.2 8.0 0.00 0.00 0.00 37 1015.0
20260506175204 15 168 3.2 9.7 0.00 0.00 0.00 36 1015.0
20260506174705 15 292 1.6 9.7 0.00 0.00 0.00 37 1015.1
20260506174203 15 79 1.6 6.4 0.00 0.00 0.00 38 1015.2
20260506173703 15 213 1.6 6.4 0.00 0.00 0.00 39 1015.2
20260506172706 15 83 3.2 11.3 0.00 0.00 0.00 38 1015.2
20260506172204 14 68 3.2 11.3 0.00 0.00 0.00 41 1015.3
20260506171203 15 232 1.6 6.4 0.00 0.00 0.00 41 1015.4
20260506170201 14 223 1.6 12.9 0.00 0.00 0.00 39 1015.4
20260506165149 13 238 1.6 8.0 0.00 0.00 0.00 39 1015.5
20260506164643 13 229 1.6 4.8 0.00 0.00 0.00 39 1015.5
20260506164135 13 235 1.6 6.4 0.00 0.00 0.00 42 1015.7
20260506163634 12 241 1.6 6.4 0.00 0.00 0.00 44 1015.7
20260506163131 12 207 1.6 4.8 0.00 0.00 0.00 49 1015.7
20260506162634 11 101 1.6 4.8 0.00 0.00 0.00 50 1015.9
20260506162131 11 28 1.6 4.8 0.00 0.00 0.00 52 1015.9
20260506161131 10 83 3.2 12.9 0.00 0.00 0.00 52 1016.1
20260506160635 10 57 4.8 12.9 0.00 0.00 0.00 53 1016.2
20260506160131 9 67 3.2 6.4 0.00 0.00 0.00 52 1016.3
20260506155632 10 68 3.2 6.4 0.00 0.00 0.00 52 1016.3
20260506155133 9 67 3.2 4.8 0.00 0.00 0.00 53 1016.4
20260506154635 8 59 3.2 4.8 0.00 0.00 0.00 54 1016.3
20260506154133 8 78 3.2 6.4 0.00 0.00 0.00 54 1016.4
20260506153631 8 96 3.2 6.4 0.00 0.00 0.00 56 1016.4
20260506153134 8 28 1.6 6.4 0.00 0.00 0.00 58 1016.5
20260506152630 7 71 3.2 6.4 0.00 0.00 0.00 59 1016.4
20260506152124 7 72 3.2 6.4 0.00 0.00 0.00 62 1016.5
20260506151622 7 42 3.2 6.4 0.00 0.00 0.00 63 1016.6
20260506151121 6 334 1.6 6.4 0.00 0.00 0.00 61 1016.6
20260506150620 6 34 1.6 6.4 0.00 0.00 0.00 61 1016.6
20260506150117 6 326 1.6 4.8 0.00 0.00 0.00 64 1016.7
20260506145616 5 298 1.6 4.8 0.00 0.00 0.00 66 1016.7
20260506145114 5 302 0.0 3.2 0.00 0.00 0.00 66 1016.9
20260506144613 5 344 0.0 3.2 0.00 0.00 0.00 70 1016.8
20260506144115 4 326 0.0 3.2 0.00 0.00 0.00 69 1016.9
20260506143111 3 300 0.0 3.2 0.00 0.00 0.00 72 1016.9
20260506142611 3 309 0.0 1.6 0.00 0.00 0.00 74 1017.1
20260506142111 3 309 0.0 1.6 0.00 0.00 0.00 74 1017.1
20260506141609 2 285 0.0 1.6 0.00 0.00 0.00 78 1017.1
20260506140608 2 285 0.0 1.6 0.00 0.00 0.00 80 1017.1
20260506140109 1 284 0.0 1.6 0.00 0.00 0.00 80 1016.9
20260506135607 1 277 0.0 1.6 0.00 0.00 0.00 82 1016.9
20260506135105 1 277 0.0 3.2 0.00 0.00 0.00 82 1017.1
20260506134602 1 317 0.0 3.2 0.00 0.00 0.00 83 1016.9
20260506134101 1 322 0.0 3.2 0.00 0.00 0.00 82 1016.9
20260506133555 0 232 0.0 0.0 0.00 0.00 0.00 84 1016.9
20260506133050 0 232 0.0 0.0 0.00 0.00 0.00 85 1017.1
20260506132544 0 232 0.0 0.0 0.00 0.00 0.00 85 1017.1
20260506132038 0 232 0.0 0.0 0.00 0.00 0.00 85 1016.9
20260506131531 0 221 0.0 0.0 0.00 0.00 0.00 84 1017.1
20260506131030 0 221 0.0 0.0 0.00 0.00 0.00 83 1016.9
20260506130530 0 222 0.0 0.0 0.00 0.00 0.00 83 1016.9
20260506130029 0 222 0.0 0.0 0.00 0.00 0.00 83 1016.9
20260506125529 0 221 0.0 0.0 0.00 0.00 0.00 84 1016.9
20260506125029 0 221 0.0 1.6 0.00 0.00 0.00 85 1016.9
20260506124530 0 221 0.0 0.0 0.00 0.00 0.00 84 1016.9
20260506124030 0 217 0.0 1.6 0.00 0.00 0.00 84 1016.9
20260506123529 0 209 0.0 1.6 0.00 0.00 0.00 84 1016.9
20260506123030 0 244 0.0 1.6 0.00 0.00 0.00 84 1016.9
20260506122529 0 244 0.0 1.6 0.00 0.00 0.00 83 1016.9
20260506121530 0 245 0.0 1.6 0.00 0.00 0.00 82 1016.9
20260506121029 0 245 0.0 1.6 0.00 0.00 0.00 82 1016.9
20260506120531 0 238 0.0 1.6 0.00 0.00 0.00 81 1017.1
20260506120029 1 242 0.0 1.6 0.00 0.00 0.00 80 1017.1
20260506115032 1 319 0.0 3.2 0.00 0.00 0.00 80 1016.9
20260506114536 1 319 0.0 3.2 0.00 0.00 0.00 80 1016.9
20260506114033 1 254 0.0 1.6 0.00 0.00 0.00 79 1016.9
20260506113530 1 329 0.0 1.6 0.00 0.00 0.00 79 1016.9
20260506113030 1 9 0.0 1.6 0.00 0.00 0.00 79 1017.1
20260506112529 1 67 0.0 1.6 0.00 0.00 0.00 77 1017.1
20260506112028 1 266 0.0 1.6 0.00 0.00 0.00 77 1017.1
20260506111531 1 333 0.0 1.6 0.00 0.00 0.00 78 1016.9
20260506111030 1 328 0.0 1.6 0.00 0.00 0.00 76 1016.9
20260506110030 1 302 0.0 1.6 0.00 0.00 0.00 77 1016.9
20260506105529 2 279 0.0 1.6 0.00 0.00 0.00 77 1017.1
20260506105030 2 279 0.0 1.6 0.00 0.00 0.00 76 1016.9
20260506104033 2 255 0.0 1.6 0.00 0.00 0.00 75 1016.9
20260506103532 2 267 0.0 1.6 0.00 0.00 0.00 76 1016.8
20260506103033 2 270 0.0 1.6 0.00 0.00 0.00 74 1016.8
20260506102532 2 254 0.0 1.6 0.00 0.00 0.00 73 1016.8
20260506102034 2 346 0.0 1.6 0.00 0.00 0.00 74 1016.8
20260506101537 2 298 0.0 3.2 0.00 0.00 0.00 73 1016.9
20260506101032 2 302 1.6 4.8 0.00 0.00 0.00 74 1016.8
20260506100529 2 330 1.6 4.8 0.00 0.00 0.00 73 1016.9
20260506100029 2 44 1.6 3.2 0.00 0.00 0.00 75 1016.7
20260506095529 2 329 1.6 6.4 0.00 0.00 0.00 74 1016.9
20260506094529 2 100 1.6 3.2 0.00 0.00 0.00 74 1016.8
20260506094030 2 329 0.0 3.2 0.00 0.00 0.00 75 1016.9
20260506093529 2 32 0.0 3.2 0.00 0.00 0.00 75 1016.9
20260506093029 2 295 0.0 1.6 0.00 0.00 0.00 79 1016.9
20260506092529 2 23 0.0 1.6 0.00 0.00 0.00 79 1017.1
20260506091531 2 46 0.0 3.2 0.00 0.00 0.00 78 1016.9
20260506091029 2 48 0.0 3.2 0.00 0.00 0.00 76 1017.1
20260506090532 2 42 0.0 3.2 0.00 0.00 0.00 75 1017.1
20260506090033 2 232 0.0 3.2 0.00 0.00 0.00 75 1017.1
20260506085532 2 304 0.0 3.2 0.00 0.00 0.00 73 1017.1
20260506085023 2 223 0.0 1.6 0.00 0.00 0.00 72 1017.1
20260506084014 2 246 0.0 0.0 0.00 0.00 0.00 69 1017.1
20260506083511 2 246 0.0 1.6 0.00 0.00 0.00 70 1016.9
20260506083012 2 246 0.0 1.6 0.00 0.00 0.00 71 1017.1
20260506082510 2 241 0.0 3.2 0.00 0.00 0.00 72 1017.1
20260506081509 2 182 0.0 1.6 0.00 0.00 0.00 72 1017.2
20260506081009 2 182 0.0 3.2 0.00 0.00 0.00 72 1017.1
20260506080509 2 213 0.0 3.2 0.00 0.00 0.00 75 1017.2
20260506073503 2 253 1.6 3.2 0.00 0.00 0.00 75 1017.3
20260506073004 3 229 0.0 3.2 0.00 0.00 0.00 72 1017.2
20260506071502 4 93 0.0 1.6 0.00 0.00 0.00 72 1017.3
20260506071001 4 93 0.0 3.2 0.00 0.00 0.00 71 1017.3
20260506062431 5 165 0.0 0.0 0.00 0.00 0.00 62 1017.1
20260506061930 5 165 0.0 0.0 0.00 0.00 0.00 62 1016.9
20260506061431 5 165 0.0 0.0 0.00 0.00 0.00 65 1017.1
20260506060929 6 165 0.0 1.6 0.00 0.00 0.00 68 1017.1
20260506060430 6 165 0.0 1.6 0.00 0.00 0.00 61 1017.1
20260506050916 7 327 0.0 1.6 0.00 0.00 0.00 50 1016.9
20260506050409 8 327 0.0 1.6 0.00 0.00 0.00 50 1016.9
20260506044405 9 219 1.6 6.4 0.00 0.00 0.00 44 1016.7
20260506043901 9 218 1.6 4.8 0.00 0.00 0.00 44 1016.8
20260506042902 10 52 4.8 16.1 0.00 0.00 0.00 43 1016.6
20260506042401 10 69 8.0 19.3 0.00 0.00 0.00 44 1016.6
20260506041901 10 53 9.7 22.5 0.00 0.00 0.00 43 1016.6
20260506041402 11 70 9.7 22.5 0.00 0.00 0.00 42 1016.5
20260506040401 11 55 11.3 20.9 0.00 0.00 0.00 44 1016.4
20260506035901 10 53 9.7 14.5 0.00 0.00 0.00 41 1016.5
20260506035401 10 93 4.8 14.5 0.00 0.00 0.00 44 1016.5
20260506034905 10 74 1.6 12.9 0.00 0.00 0.00 47 1016.5
20260506034402 10 18 3.2 12.9 0.00 0.00 0.00 43 1016.4
20260506033901 11 59 8.0 20.9 0.00 0.00 0.00 43 1016.4
20260506033402 11 75 8.0 20.9 0.00 0.00 0.00 41 1016.4
20260506031847 11 300 16.1 27.4 0.00 0.00 0.00 40 1016.2
20260506031340 11 88 19.3 27.4 0.00 0.00 0.00 40 1016.2
20260506030834 11 69 16.1 27.4 0.00 0.00 0.00 42 1016.2
20260506030334 11 73 16.1 29.0 0.00 0.00 0.00 42 1016.2
20260506025834 11 62 17.7 29.0 0.00 0.00 0.00 38 1016.1
20260506025334 11 81 19.3 32.2 0.00 0.00 0.00 40 1016.0
20260506024834 11 83 19.3 32.2 0.00 0.00 0.00 38 1016.0
20260506024334 11 74 17.7 24.1 0.00 0.00 0.00 38 1016.0
20260506023834 11 69 14.5 22.5 0.00 0.00 0.00 37 1016.0
20260506023334 11 57 14.5 22.5 0.00 0.00 0.00 41 1016.0
20260506022835 11 97 16.1 29.0 0.00 0.00 0.00 37 1016.0
20260506022333 11 92 16.1 29.0 0.00 0.00 0.00 37 1016.0
20260506021835 11 73 16.1 29.0 0.00 0.00 0.00 38 1015.7
20260506021334 11 28 16.1 32.2 0.00 0.00 0.00 38 1015.9
20260506020834 11 96 17.7 32.2 0.00 0.00 0.00 38 1015.9
20260506020334 11 14 17.7 27.4 0.00 0.00 0.00 37 1015.7
20260506015834 12 69 19.3 32.2 0.00 0.00 0.00 38 1015.7
20260506015337 12 91 17.7 32.2 0.00 0.00 0.00 38 1015.6
20260506014836 12 74 14.5 27.4 0.00 0.00 0.00 38 1015.6
20260506014336 12 59 16.1 25.7 0.00 0.00 0.00 39 1015.6
20260506013835 12 76 16.1 25.7 0.00 0.00 0.00 38 1015.5
20260506013335 12 84 17.7 30.6 0.00 0.00 0.00 38 1015.5
20260506012834 12 336 19.3 32.2 0.00 0.00 0.00 37 1015.6
20260506011833 12 101 19.3 32.2 0.00 0.00 0.00 37 1015.6
20260506011334 12 86 20.9 33.8 0.00 0.00 0.00 38 1015.6
20260506010834 12 88 22.5 33.8 0.00 0.00 0.00 38 1015.6
20260506010334 12 67 24.1 37.0 0.00 0.00 0.00 36 1015.6
20260506005834 12 17 25.7 38.6 0.00 0.00 0.00 36 1015.6
20260506005335 12 276 27.4 41.8 0.00 0.00 0.00 37 1015.9
20260506004834 12 336 27.4 41.8 0.00 0.00 0.00 36 1015.7
20260506004335 12 79 25.7 37.0 0.00 0.00 0.00 35 1015.6
20260506003833 12 80 24.1 38.6 0.00 0.00 0.00 36 1015.7
20260506002335 12 86 22.5 38.6 0.00 0.00 0.00 35 1015.9
20260506001833 12 33 24.1 37.0 0.00 0.00 0.00 39 1015.7
20260506001334 12 91 25.7 38.6 0.00 0.00 0.00 34 1015.9
20260506000833 12 79 25.7 38.6 0.00 0.00 0.00 35 1015.4
20260506000335 12 94 24.1 35.4 0.00 0.00 0.00 38 1015.7
20260505235336 12 71 22.5 37.0 0.00 0.00 0.00 36 1015.7
20260505234838 12 74 24.1 38.6 0.00 0.00 0.00 36 1015.6